This is the latest recevied weather packets stored in our database for station/object OZ1IEP-5. If no packets are shown the sender has not sent any weather packets the latest 10 day(s).
| Time | Temp. | Humidity | Pressure | Rain* | Wind** | Luminosity | Snow |
|---|---|---|---|---|---|---|---|
| 1787819408 | 18.89° C | 75% | 1022 hPa | 0 mm | - | 109 W/m² | - |
| 1787818805 | 18.89° C | 76% | 1022 hPa | 0 mm | - | 526 W/m² | - |
| 1787818206 | 18.33° C | 78% | 1022.1 hPa | 0 mm | - | 501 W/m² | - |
| 1787817607 | 17.78° C | 80% | 1022.1 hPa | 0 mm | - | 385 W/m² | - |
| 1787817005 | 17.22° C | 82% | 1022.1 hPa | 0 mm | - | 255 W/m² | - |
| 1787816406 | 17.22° C | 84% | 1022 hPa | 0 mm | - | 77 W/m² | - |
| 1787815807 | 16.67° C | 86% | 1022 hPa | 0 mm | - | 44 W/m² | - |
| 1787815206 | 16.11° C | 88% | 1022 hPa | 0 mm | - | 53 W/m² | - |
| 1787814605 | 16.11° C | 89% | 1022.1 hPa | 0 mm | - | 54 W/m² | - |
| 1787814008 | 15.56° C | 90% | 1022 hPa | 0 mm | - | 40 W/m² | - |
| 1787813405 | 15° C | 91% | 1022 hPa | 0 mm | - | 37 W/m² | - |
| 1787812806 | 15° C | 92% | 1022 hPa | 0 mm | - | 35 W/m² | - |
| 1787812208 | 14.44° C | 92% | 1022 hPa | 0 mm | - | 33 W/m² | - |
| 1787811605 | 14.44° C | 92% | 1021.8 hPa | 0 mm | - | 30 W/m² | - |
| 1787811005 | 13.89° C | 93% | 1021.9 hPa | 0 mm | - | 30 W/m² | - |
| 1787810408 | 13.33° C | 93% | 1021.9 hPa | 0 mm | - | 26 W/m² | - |
| 1787809805 | 13.33° C | 93% | 1021.9 hPa | 0 mm | - | 25 W/m² | - |
| 1787809205 | 13.33° C | 93% | 1021.9 hPa | 0 mm | - | 23 W/m² | - |
| 1787808607 | 12.78° C | 93% | 1022 hPa | 0 mm | - | 21 W/m² | - |
| 1787808005 | 12.78° C | 92% | 1022 hPa | 0 mm | - | 19 W/m² | - |
| 1787807405 | 12.78° C | 92% | 1022 hPa | 0 mm | - | 18 W/m² | - |
| 1787806807 | 12.78° C | 92% | 1022 hPa | 0 mm | - | 16 W/m² | - |
| 1787806206 | 12.22° C | 93% | 1022 hPa | 0 mm | - | 14 W/m² | - |
| 1787805605 | 12.22° C | 92% | 1022 hPa | 0 mm | - | 14 W/m² | - |
| 1787805012 | 12.22° C | 92% | 1022.1 hPa | 0 mm | - | 9 W/m² | - |
* Rain latest hour (hover to see other rain measurements)
** Current wind speed in m/s (hover to see current wind gust speed)